< < Back
Terminal Aerodrome Forecast


Current Version              Previous Versions:   1  2  3  4  5  6  7  8  9  

Terminal Aerodrome Forecast

387
FTUS44 KMOB 211700 RRA
TAFMOB
TAF
KMOB 211750Z 2118/2218 02009KT P6SM SKC
     FM220200 VRB03KT P6SM SKC
     FM221300 02007KT P6SM SKC=



Latest METAR

400
SAUS80 KWBC 220000 RRA
MTRMOB
METAR KMOB 212356Z 36003KT 10SM FEW200 19/13 A2999 RMK AO2 SLP152
T01890133 10272 20189 53003


USA.gov is the U.S. government's official web portal to all federal, state and local government web resources and services.